STARLINK-35122

Last updated on Mon Oct 06 2025 00:02:05 GMT+0000 (Coordinated Universal Time)

1 65510U 25198U 25278.50001156 .00013550 00000+0 25146-3 0 9998 2 65510 53.1588 280.4415 0001222 80.8941 100.0320 15.49287713 5547
UTC large
Height (km)
Speed (km/s)
/
Latitude / Longitude
Inclination (degrees)
Orbital Period (minutes)
Azimuth
Elevation
Range (km)
Doppler Factor

Next 0 passes for location: London (51.5072 / 0.1276)

Sorry there are no passes over London.
STARLINK-35122